Location: St. Louis
(38.6270°N, 90.1994°W)
Time: 12:20:03
(UTC-05:00)

ACS3 Solar Sail - Visible Passes

Search period start: 07 October 2024 00:00
Search period end: 17 October 2024 00:00
Orbit: 962 x 1035 km, 97.4° (Epoch: 07 October)

Date Brightness Start Highest point End Pass type
(mag) Time Alt. Az. Time Alt. Az. Time Alt. Az.
07 Oct 3.1 19:36:56 17° E 19:38:51 20° ENE 19:43:13 10° NNE visible
07 Oct 2.1 21:22:06 67° WSW 21:22:09 67° W 21:28:30 10° NNW visible
08 Oct 2.4 20:09:07 33° E 20:10:10 35° ENE 20:15:48 10° N visible
08 Oct 3.1 21:54:16 36° W 21:54:16 36° W 21:59:47 10° NNW visible
09 Oct 1.8 20:41:17 61° E 20:41:38 62° ENE 20:47:53 10° N visible
09 Oct 4.0 22:26:26 19° W 22:26:26 19° W 22:30:23 10° NW visible
10 Oct 3.2 19:28:17 16° E 19:30:03 18° ENE 19:34:01 10° NNE visible
10 Oct 1.9 21:13:26 74° W 21:13:26 74° W 21:19:36 10° NNW visible
11 Oct 2.6 20:00:25 30° E 20:01:18 31° ENE 20:06:42 10° N visible
11 Oct 3.0 21:45:34 40° W 21:45:34 40° W 21:50:56 10° NNW visible
12 Oct 1.9 20:32:32 55° ENE 20:32:41 55° ENE 20:38:49 10° N visible
12 Oct 3.9 22:17:42 22° W 22:17:42 22° W 22:21:40 10° NW visible
13 Oct 3.3 19:19:30 14° ENE 19:21:07 16° ENE 19:24:36 10° NNE visible
13 Oct 1.9 21:04:39 78° NW 21:04:39 78° NW 21:10:34 10° NNW visible
13 Oct 4.5 22:49:48 11° WNW 22:49:48 11° WNW 22:50:30 10° WNW visible
14 Oct 2.7 19:51:36 27° ENE 19:52:17 28° ENE 19:57:28 10° NNE visible
14 Oct 2.8 21:36:45 44° WNW 21:36:45 44° WNW 21:41:56 10° NNW visible
15 Oct 2.0 20:23:40 49° ENE 20:23:40 49° ENE 20:29:37 10° N visible
15 Oct 3.8 22:08:49 24° WNW 22:08:49 24° WNW 22:12:46 10° NW visible
16 Oct 3.4 19:10:35 13° ENE 19:12:05 14° ENE 19:14:57 10° NNE visible
16 Oct 1.9 20:55:44 73° N 20:55:44 73° N 21:01:23 10° N visible
16 Oct 4.5 22:40:53 12° WNW 22:40:53 12° WNW 22:42:20 10° WNW visible
